Location: Baia de Cri?
(46.1667°N, 22.7167°E)
Time: 22:09:31
(UTC+00:00)

BREEZE-M DEB (TANK) - Pass Details

Date: 15 January 2026
Orbit: 359 x 16120 km, 49.4° (Epoch: 11 February)

Event Time Altitude Azimuth Distance (km) Brightness Sun altitude
Exits shadow 03:06:41 68° 276° (W) 1,508 4.1 -30.8°
Maximum altitude 03:07:51 82° 346° (NNW) 1,619 4.4 -30.6°
Drops below altitude 10° 03:33:21 10° 78° (ENE) 10,167 9.6 -26.2°
Sets 03:50:22 0° 82° (E) 14,474 10.8 -23.2°
